[[{"header":{"parameterUnit":"m.s-1","parameterCategory":2,"la1":30.2991,"la2":30.254,"lo1":-89.0895,"lo2":-89.0444,"dy":0.0017,"dx":0.0017,"nx":28,"ny":28,"refTime":"2023-04-06T21:00:00:Z","depth":"0","parameterNumber":2,"parameterNumberName":"U-component_of_CURRENTS"},"data":[0,0,0,0,0,0,0,0,0,0,0,0,0,0,0,0,0,0,0,0,0,0,0,0,0,0,0,0,0,0,0,0,0,0,0,0,0,0,0,0,0,0,0,0,0,0,0,0,0,0,0,0,0,0,0,0,0,0,0.3348,0.3348,0,0.3355,0.3355,0.3355,0.3335,0.3334,0.3334,0.3334,0.3274,0.3273,0.3272,0,0,0,0,0,0,0,0,0,0,0,0,0,0.3274,0.3276,0.3348,0.3348,0.3349,0.3355,0.3355,0.3355,0.3335,0.3334,0.3334,0.3334,0.3275,0.3273,0.3272,0,0,0,0,0,0,0,0,0,0,0,0,0,0.3293,0.3276,0.3348,0.3342,0.3342,0.3355,0.3355,0.3355,0.3335,0.3334,0.3334,0.3334,0.3275,0.3273,0.3272,0.3268,0,0,0.3266,0.3265,0,0,0,0,0,0,0,0,0.3292,0.3295,0.3343,0.3343,0.3343,0.3347,0.3308,0.3324,0.3335,0.3334,0.3334,0.3333,0.3295,0.3292,0.329,0.3265,0.3263,0.3265,0.3264,0.3263,0.3263,0,0,0,0,0,0,0,0.3291,0.3295,0.3347,0.3343,0.3343,0.3325,0.3327,0.331,0.3313,0.3334,0.3333,0.334,0.3294,0.3292,0.3288,0.3262,0.3265,0.3264,0.3262,0.3262,0.3294,0.3296,0,0,0,0,0,0,0.33,0.3294,0.3347,0.3348,0.332,0.3327,0.3329,0.3343,0.3314,0.3311,0.334,0.3339,0.3295,0.329,0.3286,0.3336,0.3263,0.3262,0.326,0.3292,0.3295,0.3297,0,0,0,0,0,0,0.3299,0.3305,0.3347,0.3323,0.3328,0.333,0.3344,0.3343,0.3352,0.3321,0.3315,0.3352,0.3295,0.3289,0.3293,0.3331,0.3261,0.3259,0.329,0.3293,0.3296,0.3401,0,0,0,0,0,0,0.3297,0.3305,0.3314,0.3324,0.333,0.3373,0.3345,0.3344,0.3358,0.3356,0.3329,0.3322,0.3294,0.3296,0.3291,0.3327,0.3257,0.3287,0.3291,0.3295,0.3394,0.3407,0.3417,0,0,0,0,0,0.3294,0.3311,0.3315,0.3321,0.3344,0.3374,0.3376,0.3372,0.3359,0.3375,0.3358,0.3324,0.3317,0.3296,0.3289,0.3326,0.3286,0.329,0.3295,0.3389,0.3404,0.3417,0,0,0,0,0,0,0.328,0.3312,0.3316,0.334,0.3365,0.3373,0.3383,0.3383,0.3382,0.3378,0.3342,0.3336,0.3359,0.3328,0.3306,0.3349,0.3299,0.3302,0.3373,0.3387,0.3398,0.3406,0.3256,0,0,0,0,0,0.3285,0.3309,0.3336,0.3357,0.3372,0.3381,0.339,0.3395,0.3398,0.3398,0.3381,0.3368,0.3372,0.3367,0.3362,0.3376,0.3385,0.3398,0.341,0.342,0.3423,0.3495,0.3514,0.3312,0.3312,0.3312,0,0,0.3284,0.3306,0.3318,0.3357,0.3371,0.3397,0.3385,0.3414,0.3433,0.339,0.3408,0.3408,0.3387,0.3413,0.342,0.3391,0.3484,0.3425,0.3434,0.3432,0.3502,0.3522,0.354,0.3315,0.3315,0.3314,0,0,0.3293,0.3319,0.3339,0.3369,0.3406,0.3417,0.3432,0.3455,0.3465,0.3487,0.3473,0.3499,0.3483,0.3494,0.3491,0.3561,0.3548,0.3561,0.3617,0.3688,0.3706,0.3721,0.3769,0.3788,0.3561,0.3561,0.3561,0,0.3286,0.3324,0.335,0.3382,0.341,0.343,0.3462,0.3478,0.35,0.353,0.3503,0.3551,0.3524,0.3584,0.3602,0.3587,0.3619,0.3566,0.3705,0.372,0.3734,0.3779,0.3799,0.3567,0.3566,0.3566,0.3565,0,0.3312,0.3347,0.3367,0.3414,0.3448,0.3485,0.352,0.3557,0.357,0.3594,0.3664,0.3653,0.3689,0.3689,0.3653,0.375,0.374,0.3718,0.3672,0.3761,0.3802,0.3821,0.3575,0.3573,0.3571,0.357,0,0,0.327,0.3365,0.3368,0.34,0.3474,0.3497,0.3561,0.3629,0.367,0.3713,0.3781,0.3803,0.3827,0.3826,0.3818,0.3859,0.3972,0.3828,0.3829,0.3878,0.4131,0.4066,0.4079,0.3987,0.399,0.3993,0.4124,0,0.3277,0.3341,0.3392,0.3449,0.3486,0.3553,0.3604,0.3672,0.3722,0.3791,0.3844,0.3887,0.3872,0.3889,0.395,0.3959,0.4024,0.3938,0.4033,0.4036,0.397,0.4099,0.3922,0.402,0.4141,0.4144,0.4147,0,0.3272,0.3322,0.3384,0.3477,0.3499,0.3536,0.364,0.3692,0.3812,0.3857,0.3962,0.3993,0.4086,0.4036,0.4169,0.4121,0.4143,0.4147,0.4152,0.4065,0.4005,0.3948,0.4048,0.3945,0.4174,0.4172,0.417,0,0.3214,0.3307,0.3356,0.339,0.3497,0.3543,0.3602,0.3717,0.3768,0.3906,0.396,0.4096,0.415,0.423,0.4268,0.4228,0.4395,0.4339,0.4317,0.4311,0.4162,0.4138,0.4171,0.4449,0.4449,0.4449,0.4448,0,0.3197,0.3229,0.333,0.3354,0.3407,0.3505,0.357,0.3658,0.3784,0.3862,0.3988,0.4074,0.4201,0.4309,0.4333,0.4403,0.4473,0.4358,0.4358,0.4193,0.4171,0.4071,0.4026,0.4453,0.4452,0.4451,0.4451,0,0.3122,0.3195,0.3243,0.335,0.3379,0.3414,0.3529,0.3582,0.3715,0.3829,0.3876,0.4082,0.4222,0.4337,0.446,0.4472,0.4408,0.4535,0.4325,0.4297,0.4128,0.4095,0.3983,0.387,0.4522,0.4521,0.4521,0,0.3092,0.3112,0.3201,0.3224,0.3269,0.3335,0.3384,0.3526,0.3599,0.3826,0.3884,0.4071,0.4187,0.4377,0.4427,0.4504,0.4381,0.4384,0.4262,0.4126,0.4091,0.3926,0.3826,0.4113,0.4109,0.4106,0.4104,0,0.3024,0.3051,0.3088,0.3138,0.3182,0.3227,0.3321,0.3361,0.3549,0.3646,0.3814,0.3922,0.414,0.4168,0.4296,0.4312,0.4158,0.4319,0.4244,0.3839,0.3597,0.3483,0.4012,0.4076,0.4079,0.4081,0.4083,0.4084,0.295,0.2955,0.3004,0.3035,0.3078,0.3111,0.3109,0.3222,0.3301,0.3432,0.365,0.3748,0.3922,0.4062,0.407,0.3975,0.3958,0.3854,0.385,0.3712,0.352,0.3983,0.4001,0.4003,0.4005,0.4007,0.4008,0,0.2853,0.2874,0.2904,0.2928,0.2915,0.2989,0.3052,0.3031,0.306,0.3243,0.3356,0.3496,0.3538,0.3647,0.3675,0.3556,0.3373,0.345,0.318,0.3125,0.3604,0.3503,0.3333,0.3333,0.3333,0.3333,0.3333,0.3334,0.2804,0.279,0.2809,0.2754,0.2765,0.2711,0.2711,0.2708,0.2794,0.2844,0.2922,0.3074,0.3313,0.3415,0.3328,0.3237,0.3,0.2833,0.2856,0.3206,0.3242,0.3277,0.3171,0.2934,0.2934,0.2211,0.2206,0.2202]},{"header":{"parameterUnit":"m.s-1","parameterCategory":2,"la1":30.2991,"la2":30.254,"lo1":-89.0895,"lo2":-89.0444,"dy":0.0017,"dx":0.0017,"nx":28,"ny":28,"refTime":"2023-04-06T21:00:00:Z","depth":"0","parameterNumber":3,"parameterNumberName":"V-component_of_CURRENTS"},"data":[0,0,0,0,0,0,0,0,0,0,0,0,0,0,0,0,0,0,0,0,0,0,0,0,0,0,0,0,0,0,0,0,0,0,0,0,0,0,0,0,0,0,0,0,0,0,0,0,0,0,0,0,0,0,0,0,0,0,0.0156,0.0155,0,0.0096,0.0095,0.0094,0.0051,0.0051,0.0051,0.0051,-0.0028,-0.003,-0.0032,0,0,0,0,0,0,0,0,0,0,0,0,0,0.0204,0.0204,0.0156,0.0155,0.0155,0.0096,0.0095,0.0094,0.0051,0.0051,0.0051,0.0051,-0.0028,-0.003,-0.0032,0,0,0,0,0,0,0,0,0,0,0,0,0,0.0166,0.0203,0.0156,0.0127,0.0124,0.0096,0.0095,0.0094,0.0052,0.0051,0.0051,0.005,-0.0027,-0.003,-0.0033,-0.0043,0,0,-0.0041,-0.0043,0,0,0,0,0,0,0,0,0.0169,0.0165,0.0132,0.0129,0.0126,0.0082,0.0083,0.0047,0.0052,0.0078,0.0051,0.005,0.0008,0.0002,-0.001,-0.0047,-0.005,-0.0042,-0.0043,-0.0044,-0.0045,0,0,0,0,0,0,0,0.0171,0.0167,0.0131,0.0131,0.0127,0.0107,0.0101,0.0076,0.0044,0.0075,0.0073,0.0068,0.0006,-0.0007,-0.0012,-0.0051,-0.0041,-0.0044,-0.0046,-0.0047,-0.0091,-0.0091,0,0,0,0,0,0,0.0183,0.0169,0.0133,0.0129,0.0148,0.0107,0.01,0.0095,0.0045,0.0037,0.0068,0.0066,-0.0002,-0.0009,-0.0015,-0.0005,-0.0044,-0.0047,-0.0049,-0.0092,-0.0091,-0.0091,0,0,0,0,0,0,0.0184,0.018,0.0135,0.0149,0.0142,0.0107,0.0101,0.0094,0.0086,0.004,0.0031,0.0067,-0.0003,-0.0011,-0.0026,-0.001,-0.0048,-0.0051,-0.0092,-0.0092,-0.0091,-0.0002,0,0,0,0,0,0,0.0186,0.0181,0.0183,0.015,0.0142,0.0132,0.0101,0.0093,0.0084,0.008,0.0036,0.0028,-0.0004,-0.0022,-0.0029,-0.0014,-0.0053,-0.0093,-0.0092,-0.0091,-0.0006,0.0001,0.0008,0,0,0,0,0,0.0188,0.0199,0.0184,0.0179,0.0145,0.0133,0.0128,0.01,0.0084,0.0089,0.0059,0.003,-0.0021,-0.0023,-0.0032,-0.0018,-0.0094,-0.0092,-0.0091,-0.0009,0.0,0.0008,0,0,0,0,0,0,0.0226,0.0194,0.0177,0.0179,0.0162,0.0127,0.0128,0.0108,0.0087,0.0083,0.0038,0.0028,0.0017,-0.0012,-0.0013,-0.0029,-0.0063,-0.0063,0.0003,0.0011,0.0017,0.0056,-0.0056,0,0,0,0,0,0.0234,0.023,0.02,0.0202,0.0197,0.0163,0.0154,0.0136,0.0112,0.0102,0.0071,0.0039,0.0014,0.0005,-0.0026,-0.0029,-0.0046,-0.0027,-0.002,-0.0014,0.0011,-0.0004,0.0005,-0.0087,-0.0087,-0.0087,0,0,0.0249,0.0232,0.023,0.021,0.0192,0.02,0.0157,0.0152,0.016,0.0097,0.0099,0.0058,0.0016,0.001,0.0003,-0.0009,0.0001,-0.0013,-0.0007,0.0015,-0.0001,0.0008,0.0016,-0.0086,-0.0086,-0.0086,0,0,0.0285,0.0264,0.0275,0.0267,0.0247,0.0229,0.0233,0.0203,0.0193,0.0185,0.0142,0.012,0.0078,0.006,0.0043,0.0071,0.0032,0.0052,0.0126,0.0112,0.012,0.0127,0.0115,0.012,0.0063,0.0063,0.0063,0,0.0307,0.0315,0.0279,0.0292,0.0297,0.025,0.0274,0.0259,0.0229,0.0233,0.0198,0.0154,0.0107,0.0118,0.0122,0.0089,0.0075,0.01,0.0123,0.0129,0.0135,0.0121,0.0126,0.0067,0.0067,0.0066,0.0066,0,0.0354,0.0362,0.0372,0.0372,0.0371,0.0385,0.0361,0.0361,0.0336,0.032,0.0315,0.0255,0.0239,0.0209,0.0172,0.0192,0.0167,0.0128,0.0109,0.015,0.0132,0.0135,0.0074,0.0072,0.0071,0.007,0,0,0.0406,0.0405,0.041,0.043,0.0417,0.0428,0.0444,0.0454,0.0486,0.0437,0.0478,0.0411,0.0382,0.0362,0.031,0.0292,0.0301,0.0236,0.0233,0.0237,0.0277,0.0241,0.024,0.0267,0.0268,0.0269,0.0249,0,0.0458,0.0503,0.0486,0.054,0.0566,0.054,0.057,0.057,0.0558,0.0584,0.0527,0.0534,0.044,0.0441,0.0409,0.0334,0.0315,0.0311,0.0227,0.0225,0.0197,0.0244,0.0225,0.0205,0.0252,0.0252,0.0253,0,0.0516,0.0538,0.0598,0.0637,0.0649,0.0678,0.0727,0.0745,0.0758,0.0752,0.0743,0.0699,0.0678,0.0586,0.0494,0.0497,0.0403,0.0331,0.0328,0.0272,0.0195,0.0169,0.0208,0.0033,0.0257,0.0257,0.0256,0,0.0582,0.0622,0.0676,0.0688,0.0722,0.0758,0.0782,0.0804,0.0846,0.0871,0.0909,0.0856,0.0857,0.0734,0.0578,0.0543,0.0472,0.0401,0.0281,0.0277,0.0234,0.0225,0.0108,0.0341,0.0341,0.0341,0.0341,0,0.0648,0.0695,0.0717,0.0752,0.084,0.0836,0.0931,0.0946,0.0997,0.108,0.1011,0.107,0.0894,0.0825,0.0651,0.0492,0.0528,0.0318,0.0279,0.0263,0.0256,0.008,-0.0015,0.034,0.034,0.034,0.034,0,0.0712,0.0723,0.0794,0.0846,0.0874,0.0939,0.1028,0.1095,0.1132,0.1244,0.1265,0.1246,0.1153,0.0958,0.0775,0.0608,0.0336,0.0368,0.0364,0.0325,0.0033,-0.0055,-0.0197,-0.0272,0.0239,0.0238,0.0238,0,0.0747,0.079,0.0866,0.0919,0.095,0.104,0.111,0.1161,0.1241,0.136,0.143,0.139,0.1388,0.1109,0.0786,0.0495,0.0312,0.0293,0.0211,0.0038,-0.0089,-0.0159,-0.0217,0.0186,0.0185,0.0184,0.0184,0,0.082,0.0845,0.09,0.1006,0.1089,0.1186,0.1292,0.1379,0.1466,0.1572,0.1704,0.1722,0.1462,0.1167,0.0761,0.0548,0.0164,0.0264,0.0087,-0.0126,-0.021,-0.0308,0.0176,0.0176,0.0176,0.0177,0.0177,0.0178,0.0873,0.0926,0.0997,0.1099,0.1195,0.1324,0.1422,0.1547,0.1704,0.1871,0.1887,0.194,0.1517,0.0957,0.0646,0.0071,0.0082,-0.0106,-0.0192,-0.0241,-0.0334,0.0138,0.0086,0.0086,0.0086,0.0086,0.0087,0,0.093,0.099,0.1086,0.1208,0.1314,0.1359,0.1536,0.1645,0.184,0.1986,0.2093,0.1916,0.1387,0.0846,0.007,-0.0313,-0.0445,-0.0511,-0.0623,-0.0656,-0.0234,-0.0258,-0.039,-0.0389,-0.0389,-0.0389,-0.0389,-0.0389,0.0965,0.1056,0.1102,0.1283,0.1373,0.153,0.1635,0.1807,0.1942,0.2108,0.2137,0.213,0.173,0.0383,-0.0536,-0.0736,-0.0973,-0.1038,-0.1143,-0.0879,-0.0848,-0.0818,-0.0864,-0.112,-0.1121,-0.1531,-0.1535,-0.1538]}],[{"header":{"parameterUnit":"m.s-1","parameterCategory":2,"la1":30.2991,"la2":30.254,"lo1":-89.0895,"lo2":-89.0444,"dy":0.0017,"dx":0.0017,"nx":28,"ny":28,"refTime":"2023-04-06T21:00:00:Z","depth":"2","parameterNumber":2,"parameterNumberName":"U-component_of_CURRENTS"},"data":[0,0,0,0,0,0,0,0,0,0,0,0,0,0,0,0,0,0,0,0,0,0,0,0,0,0,0,0,0,0,0,0,0,0,0,0,0,0,0,0,0,0,0,0,0,0,0,0,0,0,0,0,0,0,0,0,0,0,0.2689,0.269,0,0.2711,0.2712,0.2712,0.2752,0.2753,0.2754,0.2755,0.2741,0.274,0.2739,0,0,0,0,0,0,0,0,0,0,0,0,0,0.267,0.267,0.2689,0.269,0.269,0.2711,0.2712,0.2712,0.2752,0.2753,0.2754,0.2755,0.2741,0.274,0.2738,0,0,0,0,0,0,0,0,0,0,0,0,0,0.2684,0.267,0.2689,0.2712,0.2715,0.2711,0.2712,0.2712,0.2752,0.2753,0.2754,0.2755,0.2741,0.274,0.2738,0.2705,0,0,0.2733,0.2733,0,0,0,0,0,0,0,0,0.2683,0.2685,0.2709,0.2711,0.2713,0.273,0.27,0.2708,0.2752,0.2738,0.2755,0.2756,0.2733,0.2732,0.2734,0.2705,0.2704,0.2733,0.2732,0.2731,0.2731,0,0,0,0,0,0,0,0.2682,0.2684,0.2698,0.2709,0.2712,0.2718,0.2721,0.2702,0.2728,0.2739,0.2742,0.2744,0.2734,0.2736,0.2734,0.2704,0.2733,0.2732,0.2731,0.273,0.2766,0.2768,0,0,0,0,0,0,0.2679,0.2683,0.2698,0.2699,0.2701,0.2717,0.2721,0.2724,0.2729,0.2731,0.2743,0.2746,0.2738,0.2736,0.2734,0.2798,0.2731,0.273,0.2729,0.2765,0.2767,0.2769,0,0,0,0,0,0,0.2678,0.268,0.2697,0.2691,0.2694,0.2716,0.2719,0.2724,0.2747,0.2733,0.2734,0.2764,0.2739,0.2736,0.2749,0.2794,0.2729,0.2728,0.2762,0.2765,0.2768,0.286,0,0,0,0,0,0,0.2677,0.2679,0.2692,0.2691,0.2694,0.2717,0.2718,0.2723,0.2745,0.2749,0.275,0.2749,0.274,0.2751,0.2747,0.2791,0.2726,0.276,0.2764,0.2767,0.2855,0.2866,0.2876,0,0,0,0,0,0.2677,0.2694,0.2692,0.2695,0.2707,0.2718,0.2721,0.2739,0.2745,0.2763,0.2769,0.2751,0.2772,0.2751,0.2746,0.279,0.2758,0.2763,0.2767,0.285,0.2864,0.2875,0,0,0,0,0,0,0.269,0.2699,0.2698,0.2716,0.2723,0.2725,0.2753,0.2748,0.2765,0.2783,0.276,0.276,0.2793,0.2773,0.275,0.2813,0.2768,0.2771,0.2833,0.2845,0.2856,0.2853,0.2725,0,0,0,0,0,0.2696,0.2715,0.2715,0.273,0.2744,0.2747,0.2757,0.2768,0.2776,0.2787,0.2784,0.2791,0.2802,0.2809,0.2812,0.283,0.2838,0.2861,0.2871,0.288,0.2876,0.2938,0.2954,0.2783,0.2783,0.2783,0,0,0.2701,0.2711,0.272,0.2735,0.2751,0.2768,0.2759,0.2792,0.2819,0.278,0.2827,0.2822,0.2814,0.2852,0.2866,0.2844,0.2937,0.2886,0.2893,0.2884,0.2944,0.2961,0.2976,0.2786,0.2786,0.2785,0,0,0.2719,0.274,0.2761,0.2779,0.2807,0.2807,0.2818,0.2834,0.2869,0.2893,0.2888,0.2906,0.2911,0.2925,0.2928,0.2991,0.2989,0.3002,0.3052,0.3114,0.3128,0.3141,0.3192,0.3209,0.3009,0.301,0.301,0,0.2725,0.2748,0.2767,0.2797,0.2821,0.2825,0.2852,0.2883,0.2899,0.2927,0.2927,0.2961,0.2949,0.2998,0.3024,0.3015,0.3047,0.3006,0.3128,0.3141,0.3152,0.3201,0.3218,0.3015,0.3014,0.3014,0.3013,0,0.2748,0.2781,0.2805,0.2838,0.2866,0.2898,0.2935,0.2969,0.2995,0.3011,0.3078,0.3078,0.3102,0.3105,0.3077,0.3158,0.3155,0.3134,0.3097,0.3175,0.3222,0.3238,0.3022,0.302,0.3018,0.3017,0,0,0.2715,0.2802,0.2809,0.2841,0.2899,0.2915,0.2985,0.3031,0.3083,0.3118,0.3183,0.3206,0.3218,0.3222,0.3215,0.3247,0.3352,0.3227,0.3228,0.3278,0.3498,0.3394,0.3402,0.3365,0.3368,0.3371,0.3505,0,0.2723,0.2779,0.2827,0.2882,0.2917,0.297,0.3024,0.3077,0.314,0.3205,0.3242,0.3292,0.3269,0.3291,0.3335,0.334,0.3396,0.3317,0.3413,0.3415,0.3314,0.3417,0.3158,0.3247,0.352,0.3523,0.3525,0,0.2722,0.2762,0.2824,0.2912,0.2935,0.2972,0.3071,0.3124,0.3224,0.328,0.336,0.3392,0.3459,0.3422,0.3526,0.3485,0.3506,0.3504,0.351,0.3385,0.3341,0.3209,0.3266,0.3551,0.3549,0.3547,0.3545,0,0.2672,0.276,0.281,0.2842,0.2935,0.2989,0.3035,0.3142,0.3207,0.3336,0.3399,0.3497,0.3561,0.3608,0.3623,0.3598,0.3715,0.3686,0.3621,0.3615,0.3394,0.3362,0.3771,0.3771,0.377,0.377,0.377,0,0.2657,0.2693,0.2796,0.2823,0.288,0.297,0.3053,0.3125,0.3248,0.3316,0.3441,0.3514,0.3612,0.3687,0.3683,0.3707,0.3791,0.3648,0.3649,0.3419,0.339,0.3636,0.3619,0.3775,0.3774,0.3773,0.3772,0,0.2593,0.2663,0.2719,0.2828,0.2862,0.2904,0.3031,0.3092,0.3231,0.3335,0.3378,0.3559,0.3662,0.3738,0.3814,0.3787,0.3796,0.3779,0.3495,0.3459,0.3646,0.3632,0.375,0.3747,0.3745,0.3744,0.3742,0,0.2562,0.2593,0.2695,0.2726,0.2783,0.286,0.2909,0.3051,0.3121,0.3331,0.3366,0.3541,0.3611,0.3722,0.3704,0.3726,0.3778,0.3483,0.3371,0.3658,0.3648,0.3637,0.3626,0.3134,0.3128,0.3123,0.3119,0,0.2503,0.255,0.2589,0.2651,0.2715,0.2762,0.2854,0.29,0.3062,0.3161,0.3277,0.3354,0.3507,0.342,0.3479,0.3438,0.3456,0.3378,0.3783,0.3162,0.3083,0.3072,0.308,0.3073,0.3078,0.3081,0.3083,0.3085,0.245,0.2457,0.2519,0.2565,0.2618,0.2646,0.2651,0.2744,0.2809,0.2908,0.3059,0.3093,0.3172,0.3126,0.3044,0.3011,0.3237,0.3096,0.311,0.313,0.3017,0.2937,0.2879,0.2882,0.2885,0.2887,0.289,0,0.2374,0.24,0.2431,0.2463,0.2454,0.2537,0.2587,0.2555,0.2559,0.2689,0.2741,0.2564,0.2546,0.2632,0.2526,0.2538,0.2496,0.2429,0.2355,0.2405,0.2448,0.2296,0.1969,0.1966,0.1963,0.196,0,0,0.2337,0.232,0.2326,0.2283,0.2312,0.2272,0.2274,0.2234,0.2281,0.2243,0.225,0.2425,0.2568,0.2222,0.22,0.2073,0.2214,0.1995,0.2745,0.271,0.2748,0.2858,0.2684,0,0,0,0,0]},{"header":{"parameterUnit":"m.s-1","parameterCategory":2,"la1":30.2991,"la2":30.254,"lo1":-89.0895,"lo2":-89.0444,"dy":0.0017,"dx":0.0017,"nx":28,"ny":28,"refTime":"2023-04-06T21:00:00:Z","depth":"2","parameterNumber":3,"parameterNumberName":"V-component_of_CURRENTS"},"data":[0,0,0,0,0,0,0,0,0,0,0,0,0,0,0,0,0,0,0,0,0,0,0,0,0,0,0,0,0,0,0,0,0,0,0,0,0,0,0,0,0,0,0,0,0,0,0,0,0,0,0,0,0,0,0,0,0,0,-0.0014,-0.0015,0,-0.0059,-0.0059,-0.006,-0.0088,-0.0088,-0.0088,-0.0088,-0.0143,-0.0144,-0.0146,0,0,0,0,0,0,0,0,0,0,0,0,0,0.0025,0.0024,-0.0014,-0.0015,-0.0015,-0.0059,-0.0059,-0.006,-0.0088,-0.0088,-0.0088,-0.0089,-0.0143,-0.0144,-0.0146,0,0,0,0,0,0,0,0,0,0,0,0,0,-0.0004,0.0024,-0.0014,-0.0034,-0.0036,-0.0058,-0.0059,-0.006,-0.0088,-0.0088,-0.0088,-0.0089,-0.0142,-0.0144,-0.0146,-0.0155,0,0,-0.0152,-0.0153,0,0,0,0,0,0,0,0,-0.0002,-0.0005,-0.0031,-0.0033,-0.0035,-0.0068,-0.0065,-0.0092,-0.0088,-0.0069,-0.0088,-0.0089,-0.0118,-0.0122,-0.0131,-0.0158,-0.016,-0.0152,-0.0154,-0.0154,-0.0155,0,0,0,0,0,0,0,0.0,-0.0004,-0.0033,-0.0031,-0.0034,-0.0048,-0.0052,-0.0071,-0.0093,-0.0071,-0.0073,-0.0077,-0.012,-0.0129,-0.0132,-0.0161,-0.0152,-0.0154,-0.0155,-0.0156,-0.0197,-0.0197,0,0,0,0,0,0,0.0008,-0.0002,-0.0031,-0.0034,-0.0018,-0.0049,-0.0053,-0.0058,-0.0092,-0.0098,-0.0076,-0.0078,-0.0125,-0.013,-0.0134,-0.0134,-0.0154,-0.0156,-0.0157,-0.0198,-0.0197,-0.0197,0,0,0,0,0,0,0.0009,0.0006,-0.0029,-0.0018,-0.0024,-0.0049,-0.0054,-0.0058,-0.0065,-0.0097,-0.0102,-0.0077,-0.0126,-0.0132,-0.0145,-0.0137,-0.0157,-0.0159,-0.0198,-0.0198,-0.0197,-0.0143,0,0,0,0,0,0,0.001,0.0006,0.0007,-0.0018,-0.0024,-0.0033,-0.0054,-0.0059,-0.0067,-0.0069,-0.0099,-0.0105,-0.0126,-0.0141,-0.0147,-0.014,-0.0161,-0.0198,-0.0198,-0.0197,-0.0145,-0.0141,-0.0137,0,0,0,0,0,0.0012,0.002,0.0008,0.0004,-0.0022,-0.0033,-0.0037,-0.0056,-0.0066,-0.0064,-0.0086,-0.0104,-0.0144,-0.0143,-0.0149,-0.0143,-0.0198,-0.0198,-0.0197,-0.0146,-0.0141,-0.0137,0,0,0,0,0,0,0.0042,0.0017,0.0003,0.0004,-0.0011,-0.0037,-0.0036,-0.0051,-0.0067,-0.007,-0.01,-0.0107,-0.0118,-0.0138,-0.0136,-0.0156,-0.0175,-0.0176,-0.0134,-0.013,-0.0126,-0.0105,-0.0162,0,0,0,0,0,0.0047,0.0043,0.0019,0.0019,0.0015,-0.001,-0.0017,-0.0032,-0.005,-0.0057,-0.0078,-0.0102,-0.0123,-0.0131,-0.0153,-0.016,-0.018,-0.0162,-0.0158,-0.0155,-0.0143,-0.0168,-0.0165,-0.0197,-0.0197,-0.0197,0,0,0.0059,0.0044,0.0042,0.0025,0.0012,0.0017,-0.0014,-0.002,-0.0016,-0.006,-0.0059,-0.0091,-0.0123,-0.0132,-0.0139,-0.0146,-0.0158,-0.0155,-0.0151,-0.0141,-0.0167,-0.0164,-0.0161,-0.0196,-0.0196,-0.0196,0,0,0.0086,0.0069,0.0076,0.0069,0.0052,0.0037,0.0039,0.0016,0.0008,-0.0001,-0.0033,-0.0056,-0.0085,-0.0105,-0.0119,-0.0108,-0.014,-0.012,-0.008,-0.0105,-0.0102,-0.01,-0.0124,-0.0125,-0.0115,-0.0115,-0.0115,0,0.0104,0.0108,0.0079,0.0088,0.0091,0.0053,0.007,0.0056,0.0032,0.0029,0.0008,-0.0035,-0.007,-0.0076,-0.0078,-0.0099,-0.0118,-0.0092,-0.0098,-0.0097,-0.0095,-0.0121,-0.0122,-0.0112,-0.0113,-0.0113,-0.0113,0,0.0137,0.0142,0.015,0.0148,0.0146,0.0154,0.0134,0.0129,0.0108,0.009,0.0075,0.0027,0.0008,-0.0017,-0.0047,-0.0052,-0.0071,-0.0092,-0.0105,-0.0089,-0.0117,-0.0119,-0.0108,-0.0109,-0.011,-0.0111,0,0,0.0182,0.0175,0.018,0.0194,0.018,0.0188,0.0193,0.019,0.0207,0.0163,0.018,0.012,0.0094,0.0075,0.0034,0.0002,-0.0019,-0.0038,-0.004,-0.0054,-0.0072,-0.0108,-0.0115,-0.0041,-0.0041,-0.0041,-0.0096,0,0.0222,0.0253,0.0237,0.0276,0.0296,0.0269,0.0286,0.0274,0.0257,0.0264,0.0204,0.0199,0.0132,0.0126,0.0085,0.0012,-0.0022,-0.0002,-0.0093,-0.0095,-0.0123,-0.0117,-0.0077,-0.0125,-0.0099,-0.0099,-0.0099,0,0.0269,0.0283,0.0327,0.0349,0.0358,0.038,0.0404,0.0412,0.0397,0.0384,0.0359,0.0314,0.0269,0.0208,0.01,0.0117,0.0031,-0.0037,-0.0041,-0.0093,-0.0135,-0.0138,-0.013,-0.0103,-0.0103,-0.0103,-0.0102,0,0.0327,0.0352,0.0391,0.0399,0.0417,0.0442,0.0454,0.0453,0.0478,0.0468,0.0488,0.0416,0.0408,0.0284,0.0134,0.0121,0.0008,-0.0025,-0.0139,-0.0143,-0.0134,-0.0138,-0.0102,-0.0102,-0.0102,-0.0102,-0.0102,0,0.0382,0.0416,0.0428,0.0456,0.0519,0.0509,0.0577,0.0576,0.0596,0.0646,0.0567,0.0589,0.0427,0.0337,0.0177,0.0017,0.0042,-0.0127,-0.0157,-0.0116,-0.0117,-0.0119,-0.012,-0.0104,-0.0104,-0.0103,-0.0103,0,0.0437,0.0442,0.0496,0.053,0.0552,0.0599,0.0661,0.0708,0.0718,0.0786,0.0789,0.0732,0.0621,0.0436,0.0245,0.0097,-0.0077,-0.0144,-0.0088,-0.0112,-0.0221,-0.0219,-0.0265,-0.0267,-0.0268,-0.0269,-0.027,0,0.0464,0.0499,0.0557,0.0601,0.0624,0.0691,0.0745,0.077,0.0827,0.0872,0.0915,0.0839,0.0793,0.0499,0.0226,-0.0045,-0.0084,-0.0194,-0.022,-0.0212,-0.0237,-0.0232,-0.0228,-0.0188,-0.0188,-0.0188,-0.0188,0,0.0523,0.0545,0.0586,0.0674,0.0744,0.0816,0.0897,0.0962,0.1007,0.1069,0.1118,0.1081,0.0827,0.0571,0.0204,0.0014,-0.0151,-0.0208,-0.0201,-0.0158,-0.0145,-0.0168,-0.0165,-0.019,-0.019,-0.019,-0.019,-0.019,0.0568,0.0606,0.0666,0.0749,0.0828,0.0929,0.1007,0.1098,0.1201,0.1284,0.1252,0.122,0.093,0.0476,0.0152,-0.017,-0.016,-0.0275,-0.0272,-0.0268,-0.0255,-0.0246,-0.0307,-0.0308,-0.0308,-0.0308,-0.0309,0,0.0617,0.0663,0.0738,0.0831,0.0918,0.096,0.1099,0.1175,0.1308,0.1375,0.1404,0.115,0.0863,0.0534,0.0065,-0.0239,-0.0253,-0.0334,-0.0273,-0.0269,-0.0266,-0.0251,-0.0303,-0.0304,-0.0305,-0.0306,0,0,0.0647,0.0716,0.0747,0.0887,0.0963,0.1091,0.118,0.1292,0.1377,0.1434,0.1431,0.1359,0.0981,0.064,0.0239,-0.0024,-0.0083,-0.0084,-0.0055,0.0067,0.0074,-0.0199,-0.0167,0,0,0,0,0]}],[{"header":{"parameterUnit":"m.s-1","parameterCategory":2,"la1":30.2991,"la2":30.254,"lo1":-89.0895,"lo2":-89.0444,"dy":0.0017,"dx":0.0017,"nx":28,"ny":28,"refTime":"2023-04-06T21:00:00:Z","depth":"4","parameterNumber":2,"parameterNumberName":"U-component_of_CURRENTS"},"data":[0,0,0,0,0,0,0,0,0,0,0,0,0,0,0,0,0,0,0,0,0,0,0,0,0,0,0,0,0,0,0,0,0,0,0,0,0,0,0,0,0,0,0,0,0,0,0,0,0,0,0,0,0,0,0,0,0,0,0.156,0.1561,0,0.1616,0.1617,0.1617,0.1662,0.1663,0.1664,0.1664,0.1761,0.1763,0.1765,0,0,0,0,0,0,0,0,0,0,0,0,0,0.1479,0.148,0.156,0.1561,0.1562,0.1616,0.1617,0.1617,0.1662,0.1663,0.1664,0.1665,0.1761,0.1763,0.1765,0,0,0,0,0,0,0,0,0,0,0,0,0,0.1519,0.148,0.1559,0.1593,0.1597,0.1616,0.1617,0.1617,0.1662,0.1663,0.1664,0.1665,0.176,0.1763,0.1766,0.1761,0,0,0.1774,0.1775,0,0,0,0,0,0,0,0,0.1517,0.1522,0.1587,0.1591,0.1595,0.1636,0.1624,0.1669,0.1662,0.1634,0.1664,0.1666,0.1724,0.173,0.1733,0.1766,0.177,0.1774,0.1776,0.1777,0.1778,0,0,0,0,0,0,0,0.1514,0.152,0.1579,0.1588,0.1593,0.1601,0.1608,0.1632,0.1671,0.1636,0.1641,0.1651,0.1727,0.173,0.1736,0.1771,0.1774,0.1777,0.1779,0.178,0.1904,0.1905,0,0,0,0,0,0,0.1513,0.1517,0.1577,0.1581,0.1561,0.1602,0.161,0.1619,0.167,0.1679,0.165,0.1653,0.1725,0.1733,0.174,0.183,0.1777,0.178,0.1782,0.1902,0.1904,0.1906,0,0,0,0,0,0,0.1511,0.1518,0.1575,0.1553,0.1561,0.1603,0.1613,0.162,0.1661,0.168,0.169,0.1689,0.1726,0.1736,0.1797,0.1831,0.1781,0.1784,0.19,0.1903,0.1905,0.1951,0,0,0,0,0,0,0.1508,0.1516,0.1536,0.1553,0.1563,0.1608,0.1613,0.162,0.1665,0.167,0.1716,0.1724,0.1728,0.1792,0.1799,0.1834,0.1786,0.1898,0.1901,0.1904,0.1948,0.1955,0.1961,0,0,0,0,0,0.1505,0.152,0.1536,0.1545,0.1584,0.1609,0.1615,0.1645,0.1666,0.1686,0.1725,0.1724,0.1816,0.1796,0.1804,0.184,0.1897,0.19,0.1904,0.1945,0.1954,0.1961,0,0,0,0,0,0,0.1493,0.1527,0.1545,0.157,0.16,0.1618,0.1644,0.1665,0.1709,0.1726,0.1746,0.1756,0.1821,0.1825,0.1803,0.1884,0.1856,0.1861,0.1884,0.1893,0.1899,0.1896,0.1789,0,0,0,0,0,0.1499,0.1527,0.1554,0.1581,0.1597,0.1628,0.165,0.167,0.1705,0.1726,0.1762,0.1799,0.1834,0.1861,0.1888,0.1935,0.1946,0.1963,0.197,0.1975,0.1979,0.204,0.2053,0.1917,0.1917,0.1917,0,0,0.1503,0.1528,0.1545,0.1582,0.1609,0.1634,0.1644,0.1684,0.1715,0.173,0.1797,0.1828,0.1853,0.1905,0.1934,0.1919,0.2018,0.198,0.1984,0.1985,0.2045,0.2058,0.207,0.192,0.1919,0.1919,0,0,0.1515,0.1548,0.1572,0.1598,0.1644,0.166,0.1681,0.1721,0.1753,0.1812,0.1833,0.1887,0.1943,0.1965,0.1982,0.2043,0.2052,0.2059,0.2093,0.2153,0.2164,0.2174,0.2196,0.2208,0.2062,0.2062,0.2062,0,0.1528,0.1554,0.1584,0.1611,0.1639,0.1677,0.1705,0.1736,0.1796,0.1831,0.1844,0.1947,0.1967,0.2031,0.2051,0.2058,0.2086,0.2059,0.2161,0.2172,0.2182,0.2202,0.2214,0.2065,0.2064,0.2064,0.2064,0,0.1542,0.1579,0.1597,0.1645,0.1676,0.171,0.1751,0.1801,0.185,0.1881,0.1971,0.2007,0.2072,0.2085,0.2087,0.2169,0.2164,0.2163,0.2139,0.2198,0.2215,0.2228,0.2069,0.2068,0.2067,0.2066,0,0,0.1542,0.1597,0.1612,0.1639,0.17,0.1725,0.1788,0.1849,0.1903,0.1967,0.2042,0.2102,0.2139,0.2161,0.2183,0.2226,0.2309,0.223,0.2232,0.2247,0.2432,0.2278,0.2276,0.2341,0.2344,0.2346,0.2412,0,0.1556,0.1601,0.1633,0.169,0.1714,0.1773,0.1829,0.1892,0.1954,0.2032,0.2088,0.2163,0.2164,0.2212,0.2261,0.2305,0.2347,0.229,0.2375,0.2377,0.2231,0.2287,0.2355,0.2421,0.2423,0.2425,0.2427,0,0.1558,0.1592,0.1643,0.1715,0.1736,0.1783,0.1886,0.1942,0.2046,0.2098,0.2184,0.223,0.2318,0.2306,0.2419,0.2393,0.242,0.2438,0.2441,0.2289,0.2246,0.2353,0.2449,0.2447,0.2446,0.2444,0.2443,0,0.1528,0.16,0.1643,0.1667,0.1753,0.1808,0.1871,0.1972,0.2027,0.2152,0.2211,0.2314,0.2389,0.2449,0.2498,0.248,0.2602,0.2579,0.246,0.2448,0.2546,0.2534,0.2654,0.2654,0.2654,0.2654,0.2654,0,0.1511,0.1554,0.164,0.1665,0.1732,0.1807,0.1896,0.1972,0.2084,0.2147,0.2255,0.2317,0.2438,0.2514,0.2535,0.2534,0.2643,0.247,0.2462,0.2561,0.2551,0.2553,0.2541,0.2656,0.2656,0.2655,0.2655,0,0.1462,0.1522,0.1572,0.1675,0.1716,0.1768,0.1894,0.1946,0.2076,0.2167,0.2213,0.2355,0.2453,0.2536,0.2633,0.2571,0.2585,0.2556,0.265,0.2646,0.2376,0.2366,0.2417,0.2413,0.2409,0.2405,0.2403,0,0.1432,0.1454,0.1562,0.1596,0.165,0.174,0.1796,0.1927,0.1973,0.2163,0.2188,0.2341,0.2418,0.2432,0.2527,0.2555,0.2529,0.2509,0.2436,0.2368,0.2357,0.2352,0.2347,0.2396,0.2395,0.2394,0.2393,0,0.137,0.1424,0.1468,0.1531,0.1595,0.1647,0.1739,0.1758,0.1909,0.2046,0.2113,0.217,0.2275,0.2337,0.2384,0.2396,0.2504,0.2467,0.2474,0.2405,0.2343,0.2335,0.2334,0.2379,0.2381,0.2383,0.2383,0,0.1329,0.1337,0.1401,0.1442,0.1513,0.1529,0.1591,0.165,0.1717,0.1917,0.1937,0.2105,0.2249,0.2256,0.2296,0.2302,0.2262,0.2176,0.2197,0.2214,0.2117,0.2007,0.1939,0,0,0,0,0,0.1275,0.1272,0.1302,0.1332,0.1393,0.1436,0.1536,0.16,0.1746,0.1742,0.1833,0.1917,0.1991,0.2075,0.2041,0.2204,0.2267,0.2153,0.2178,0.2302,0.2318,0.2223,0,0,0,0,0,0,0.1237,0.127,0.1262,0.1227,0.1233,0.1282,0.1344,0.1446,0.1448,0.1614,0.1665,0.1797,0.1898,0.1996,0.2004,0.2029,0.2003,0.2256,0.2251,0.2293,0.2308,0.2321,0.2229,0,0,0,0,0]},{"header":{"parameterUnit":"m.s-1","parameterCategory":2,"la1":30.2991,"la2":30.254,"lo1":-89.0895,"lo2":-89.0444,"dy":0.0017,"dx":0.0017,"nx":28,"ny":28,"refTime":"2023-04-06T21:00:00:Z","depth":"4","parameterNumber":3,"parameterNumberName":"V-component_of_CURRENTS"},"data":[0,0,0,0,0,0,0,0,0,0,0,0,0,0,0,0,0,0,0,0,0,0,0,0,0,0,0,0,0,0,0,0,0,0,0,0,0,0,0,0,0,0,0,0,0,0,0,0,0,0,0,0,0,0,0,0,0,0,0.0016,0.0016,0,-0.0009,-0.0009,-0.001,-0.0022,-0.0022,-0.0022,-0.0022,-0.0059,-0.006,-0.0061,0,0,0,0,0,0,0,0,0,0,0,0,0,0.0036,0.0035,0.0016,0.0016,0.0015,-0.0009,-0.0009,-0.001,-0.0022,-0.0022,-0.0022,-0.0022,-0.0059,-0.006,-0.0061,0,0,0,0,0,0,0,0,0,0,0,0,0,0.0021,0.0035,0.0016,0.0006,0.0005,-0.0009,-0.0009,-0.001,-0.0022,-0.0022,-0.0022,-0.0022,-0.0058,-0.006,-0.0061,-0.007,0,0,-0.0066,-0.0066,0,0,0,0,0,0,0,0,0.0021,0.002,0.0008,0.0007,0.0006,-0.0012,-0.0016,-0.0031,-0.0022,-0.0011,-0.0022,-0.0022,-0.0044,-0.0047,-0.0052,-0.0072,-0.0074,-0.0066,-0.0067,-0.0067,-0.0068,0,0,0,0,0,0,0,0.0023,0.0021,0.0006,0.0008,0.0006,-0.0003,-0.0005,-0.0019,-0.0028,-0.0012,-0.0013,-0.0016,-0.0045,-0.005,-0.0053,-0.0074,-0.0066,-0.0067,-0.0068,-0.0069,-0.0104,-0.0104,0,0,0,0,0,0,0.0026,0.0022,0.0007,0.0005,0.0014,-0.0003,-0.0005,-0.0006,-0.0028,-0.0031,-0.0016,-0.0017,-0.0048,-0.0051,-0.0054,-0.006,-0.0067,-0.0069,-0.007,-0.0104,-0.0104,-0.0104,0,0,0,0,0,0,0.0027,0.0025,0.0008,0.0013,0.001,-0.0003,-0.0005,-0.0007,-0.001,-0.003,-0.0034,-0.0017,-0.0048,-0.0052,-0.0063,-0.0062,-0.0069,-0.0071,-0.0104,-0.0104,-0.0104,-0.0077,0,0,0,0,0,0,0.0028,0.0026,0.0027,0.0013,0.001,0.0005,-0.0005,-0.0007,-0.0012,-0.0013,-0.0032,-0.0036,-0.0048,-0.006,-0.0064,-0.0064,-0.0072,-0.0104,-0.0104,-0.0104,-0.0078,-0.0076,-0.0074,0,0,0,0,0,0.0029,0.0035,0.0027,0.0025,0.0012,0.0005,0.0003,-0.0007,-0.0012,-0.001,-0.0024,-0.0035,-0.0064,-0.0062,-0.0066,-0.0066,-0.0104,-0.0104,-0.0104,-0.0078,-0.0076,-0.0074,0,0,0,0,0,0,0.0047,0.0034,0.0025,0.0027,0.0018,0.0003,0.0005,-0.0005,-0.0014,-0.0016,-0.0035,-0.0039,-0.0048,-0.0062,-0.0059,-0.0078,-0.0086,-0.0087,-0.0065,-0.0063,-0.0062,-0.0051,-0.0073,0,0,0,0,0,0.005,0.0049,0.0035,0.0036,0.0033,0.0018,0.0014,0.0006,-0.0005,-0.0009,-0.0023,-0.0039,-0.0053,-0.0061,-0.0074,-0.0084,-0.0107,-0.0088,-0.0087,-0.0085,-0.008,-0.0115,-0.0116,-0.0104,-0.0104,-0.0104,0,0,0.0058,0.0049,0.0049,0.0039,0.0032,0.0035,0.0016,0.0013,0.0015,-0.0012,-0.0013,-0.0033,-0.0054,-0.0064,-0.007,-0.0075,-0.0102,-0.0085,-0.0084,-0.0079,-0.0115,-0.0116,-0.0117,-0.0105,-0.0105,-0.0105,0,0,0.0074,0.0065,0.0071,0.0066,0.0055,0.0047,0.0048,0.0034,0.0028,0.002,0.0001,-0.0019,-0.0036,-0.0054,-0.0064,-0.0063,-0.0092,-0.0069,-0.0053,-0.0087,-0.0088,-0.009,-0.0127,-0.0132,-0.0069,-0.0069,-0.0069,0,0.0084,0.0089,0.0072,0.0078,0.0079,0.0056,0.0067,0.0058,0.0041,0.0036,0.0026,-0.001,-0.0031,-0.0046,-0.0047,-0.0059,-0.0084,-0.0057,-0.0085,-0.0086,-0.0088,-0.0126,-0.0132,-0.0068,-0.0068,-0.0068,-0.0068,0,0.0104,0.011,0.0115,0.0114,0.0113,0.0118,0.0105,0.0101,0.0088,0.0073,0.0054,0.0021,0.0001,-0.0014,-0.003,-0.0053,-0.0069,-0.0078,-0.0088,-0.0088,-0.0128,-0.0134,-0.0066,-0.0066,-0.0067,-0.0067,0,0,0.013,0.0129,0.0133,0.0142,0.0134,0.014,0.0142,0.0137,0.014,0.011,0.0107,0.0068,0.0043,0.0029,-0.0001,-0.0035,-0.0077,-0.006,-0.0062,-0.0094,-0.0157,-0.0148,-0.0154,-0.0092,-0.0092,-0.0093,-0.0183,0,0.0153,0.0173,0.0166,0.0192,0.0205,0.019,0.0199,0.0189,0.017,0.016,0.0113,0.0099,0.0062,0.0051,0.001,-0.0051,-0.0091,-0.0052,-0.0155,-0.0158,-0.0147,-0.016,-0.0095,-0.0188,-0.0189,-0.019,-0.0191,0,0.018,0.0191,0.0219,0.0237,0.0243,0.0257,0.0267,0.027,0.0244,0.0227,0.0193,0.0155,0.0104,0.0073,-0.0036,-0.0009,-0.0079,-0.0133,-0.0138,-0.014,-0.016,-0.0187,-0.0203,-0.0202,-0.0201,-0.02,-0.02,0,0.0212,0.0232,0.0258,0.0264,0.0279,0.0295,0.0306,0.0293,0.0303,0.027,0.0267,0.0194,0.0169,0.007,-0.0041,-0.0041,-0.0165,-0.018,-0.0241,-0.0242,-0.0235,-0.0233,-0.0261,-0.026,-0.026,-0.026,-0.026,0,0.0242,0.0266,0.028,0.03,0.0342,0.0337,0.0375,0.0368,0.0365,0.0383,0.0309,0.0301,0.0168,0.0083,-0.003,-0.0151,-0.0159,-0.024,-0.0262,-0.0223,-0.0218,-0.0241,-0.0237,-0.0263,-0.0263,-0.0262,-0.0261,0,0.027,0.0279,0.0316,0.0344,0.0361,0.0392,0.0433,0.0455,0.0444,0.0464,0.0458,0.0379,0.0272,0.0128,-0.0033,-0.0122,-0.025,-0.0293,-0.0241,-0.026,-0.031,-0.0304,-0.0372,-0.0372,-0.0373,-0.0373,-0.0373,0,0.0283,0.0306,0.0353,0.0386,0.0404,0.0451,0.0487,0.0497,0.0522,0.0516,0.0529,0.0438,0.037,0.0152,-0.001,-0.0229,-0.0257,-0.0331,-0.0323,-0.0305,-0.0321,-0.0315,-0.0309,-0.0374,-0.0374,-0.0374,-0.0374,0,0.0312,0.0331,0.0361,0.0425,0.0475,0.0528,0.058,0.0606,0.0623,0.0615,0.0596,0.0482,0.0361,0.0176,0.0006,-0.0152,-0.0289,-0.0336,-0.0336,-0.0329,-0.0308,-0.0322,-0.0316,-0.0375,-0.0375,-0.0375,-0.0375,0,0.0335,0.0359,0.0403,0.0458,0.0525,0.0586,0.0611,0.0648,0.0672,0.0668,0.0663,0.0525,0.0446,0.0216,0.0058,-0.0097,-0.0139,-0.0192,-0.0201,-0.0202,-0.0127,-0.0074,-0.0089,0,0,0,0,0,0.0353,0.0381,0.0433,0.0495,0.056,0.06,0.0666,0.0683,0.0706,0.0708,0.069,0.058,0.0358,0.0256,0.0105,0.0031,-0.0183,-0.0153,-0.0253,-0.0381,-0.038,-0.032,0,0,0,0,0,0,0.0366,0.0413,0.0431,0.0516,0.0563,0.0637,0.0683,0.0698,0.07,0.0702,0.0589,0.0539,0.0319,0.0449,0.0102,0.0054,-0.0031,-0.0258,-0.0261,-0.0382,-0.0381,-0.038,-0.0317,0,0,0,0,0]}]]